Hourly Data Report for May 04, 2020

All times are specified in Local Standard Time (LST). Add 1 hour to adjust for Daylight Saving Time where and when it is observed.

OTTAWA INTL A
ONTARIO
Current Station Operator: NAVCAN

45°19'00.000" N
75°40'00.000" W
114.90 m
6106001
71628
YOW

Download Data

Hourly Data (May 2020)
Hourly Data Report for May 4, 2020
TIME Temp Definition
°C
Dew Point Definition
°C
Rel Hum Definition
%
Wind Dir Definition
10's deg

Wind Spd Definition
km/h
Visibility Definition
km
Stn Press Definition
kPa
Hmdx Definition


Wind Chill Definition


Weather Definition


00:00 6.8 3.6 80 26 13 24.1 99.20     LegendNANA
01:00 8.1 3.2 71 29 15 24.1 99.22     Mostly Cloudy
02:00 7.8 2.8 70 29 18 24.1 99.19     LegendNANA
03:00 7.4 2.2 69 31 24 24.1 99.19     LegendNANA
04:00 6.7 2.7 76 33 28 16.1 99.24     Cloudy
05:00 6.1 2.1 76 33 23 24.1 99.29     LegendNANA
06:00 5.8 1.4 73 33 29 24.1 99.38     LegendNANA
07:00 5.8 0.7 70 32 28 24.1 99.44     Cloudy
08:00 5.5 0.2 69 33 34 24.1 99.50     LegendNANA
09:00 5.4 -0.1 68 33 31 24.1 99.55     LegendNANA
10:00 5.2 -0.3 67 32 28 24.1 99.65     Cloudy
11:00 6.1 -0.7 62 34 29 24.1 99.68     Rain
12:00 8.0 0.1 57 32 28 24.1 99.69     LegendNANA
13:00 9.6 0.5 53 30 34 24.1 99.72     Mostly Cloudy
14:00 10.1 -1.4 44 33 30 24.1 99.73     LegendNANA
15:00 10.0 -2.1 43 35 28 24.1 99.72     LegendNANA
16:00 10.2 -2.6 40 30 28 24.1 99.76     Mainly Clear
17:00 10.1 -3.0 39 32 33 24.1 99.79     LegendNANA
18:00 7.5 -5.5 39 34 36 24.1 99.86     LegendNANA
19:00 6.1 -4.6 46 32 28 24.1 99.96     Clear
20:00 4.8 -5.5 47 32 29 24.1 100.07     LegendNANA
21:00 4.0 -5.9 49 33 25 24.1 100.13     LegendNANA
22:00 2.8 -6.4 51 33 26 24.1 100.14     Clear
23:00 1.7 -6.7 54 32 22 24.1 100.17     LegendNANA

Notes on Data Quality.

Legend

  • E = Estimated
  • M = Missing
  • NA = Not Available*
  • [empty] = Indicates an unobserved value
Date modified: